Regional Weather Roundup
Issued by NWS Newport/Morehead, NC

Current Version | Previous Version | Graphics & Text | Print | Product List | Glossary Off
Versions: 1 2 3 4 5 6 7 8 9 10 11 12 13 14 15 16 17 18 19 20 21 22 23 24 25 26 27 28 29 30 31 32 33 34 35 36 37 38 39 40 41 42 43 44 45 46 47 48 49 50

000
ASUS42 KMHX 290425
RWRMHX
WEATHER ROUNDUP FOR EASTERN NORTH CAROLINA
NATIONAL WEATHER SERVICE NEWPORT/MOREHEAD CITY NC
1200 AM EDT SAT APR 29 2017

NOTE: "FAIR" INDICATES FEW OR NO CLOUDS BELOW 12,000 FEET
WITH NO SIGNIFICANT WEATHER AND/OR OBSTRUCTIONS TO VISIBILITY

NCZ015>017-031-032-045>047-102-103-290500-
NORTH COAST

CITY           SKY/WX    TMP DP  RH WIND       PRES   REMARKS
EDENTON        CLOUDY    77  73  87 SW12G18   30.13S
ELIZABETH CITY CLOUDY    75  74  96 S13       30.12S
KITTY HAWK     PTCLDY    74  74 100 CALM      30.13R
MANTEO         PTCLDY    74  72  94 SW17      30.15R

$$

NCZ045>047-081-094-103-104-290500-
CENTRAL COAST

CITY           SKY/WX    TMP DP  RH WIND       PRES   REMARKS
FRISCO         CLEAR     75  72  90 SW13G18   30.18R FOG

$$

NCZ095-097-098-100-101-290500-
SOUTHERN COAST

CITY           SKY/WX    TMP DP  RH WIND       PRES   REMARKS
BEAUFORT       CLEAR     74  74 100 SW10      30.17S
CEDAR ISLAND   NOT AVBL
JACKSONVILLE   CLOUDY    75  74  96 S10G17    30.15S
PINEY ISLAND   CLOUDY   N/A N/A N/A S10       30.16S
WILMINGTON     CLOUDY    76  74  93 S12       30.16S


$$

NCZ011>013-027>030-043-044-078>080-089-090>093-098-290500-
COASTAL PLAIN

CITY           SKY/WX    TMP DP  RH WIND       PRES   REMARKS
AHOSKIE          N/A     74  72  93 S6        30.11R
CLINTON        CLOUDY    75  74  96 S6        30.14R
ELIZABETHTOWN  CLOUDY    75  73  94 S8        30.14S
GOLDSBORO      PTCLDY    76  76 100 S8        30.12R
GREENVILLE     PTCLDY    75  73  94 S12       30.14R
HAVELOCK       NOT AVBL
KENANSVILLE    CLOUDY    75  72  88 CALM      30.15R
KINSTON        CLOUDY    76  73  88 S9        30.14S
NEW BERN       CLOUDY    76  74  93 S9        30.16R
RICHLANDS      CLOUDY    76  73  91 S12       30.16R
ROCKY MOUNT    PTCLDY    76  74  93 S8        30.11R
WASHINGTON     MOCLDY    75  72  89 S9        30.14S
WHITEVILLE     CLOUDY    76  73  90 S8        30.15R

$$

AMZ130-135-150-152-154-156-158-170-250-252-270-ANZ085-086-088-633-658-670-290500-
MARINE OBSERVATIONS

STATION/POSITION TIME  TEMP    WIND        PRES    WAVE   SWELL
                       AIR SEA DIR/SP/G            HT/PER HT/PER
                 (UTC) (F)     (DEG/KT/KT) (MB)    (FT/S) (FT/S)
CHESAPEAKE LIGHT NOT AVBL
64 E VA BEACH    0350   62 57  200/ 16/ 17 1020.6    4/ 6   2/ 8
DUCK             0400   75 60  200/ 15/ 18 1019.6
2 E DUCK         0400      60                N/A     2/10
OREGON INLET     0400   74 76  190/ 15/ 20 1020.9
13E OREGON INLT  0348      62                N/A     4/ 8   2/ 8
HATTERAS CG      0400   74 73  190/  7/ 12 1021.6
DIAMOND BUOY     0350   77 76  210/ 16/ 19 1021.7    4/ 7   2/ 7
CAPE LOOKOUT     0400   73     200/  9/ 11 1021.6
BEAUFORT LAB     0400   73 70  200/  9/ 14 1021.0
30 SE NEW RVR IN 0408   73     210/ 10/ 12 1022.1
30 SE NEW RVR IN 0413      72                N/A     4/ 5
27 SE WRIGHTSVLE 0408   74 73  190/ 10/ 16 1021.4
5 SE WRIGHTSVLE  0408   73 70  190/ 12/ 16 1021.5
225 S CAPE HAT   0350   74 75  150/ 12/ 14 1024.9    3/ 8   3/ 8
41 SE CHARLESTON 0410   76 74  170/ 12/ 16 1021.0

$$




USA.gov is the U.S. government's official web portal to all federal, state and local government web resources and services.